TimeEST,TemperatureF,Dew PointF,Humidity,Sea Level PressureIn,VisibilityMPH,Wind Direction,Wind SpeedMPH,Gust SpeedMPH,PrecipitationIn,Events,Conditions,WindDirDegrees,DateUTC
12:53 AM,57.9,48.9,72,30.12,10.0,South,4.6,-,N/A,,Overcast,180,2011-11-14 05:53:00
1:53 AM,57.9,48.0,70,30.12,10.0,South,3.5,-,N/A,,Overcast,190,2011-11-14 06:53:00
2:53 AM,57.9,46.9,67,30.12,10.0,Calm,Calm,-,N/A,,Overcast,0,2011-11-14 07:53:00
3:53 AM,57.9,46.9,67,30.12,10.0,South,4.6,-,N/A,,Overcast,190,2011-11-14 08:53:00
5:53 AM,57.0,46.9,69,30.13,10.0,Calm,Calm,-,N/A,,Overcast,0,2011-11-14 10:53:00
6:53 AM,57.0,46.9,69,30.13,10.0,Calm,Calm,-,N/A,,Overcast,0,2011-11-14 11:53:00
8:53 AM,57.0,48.0,72,30.14,10.0,South,3.5,-,N/A,,Overcast,180,2011-11-14 13:53:00
9:53 AM,57.9,48.9,72,30.15,10.0,SW,3.5,-,N/A,,Overcast,230,2011-11-14 14:53:00
10:53 AM,61.0,50.0,67,30.14,10.0,Calm,Calm,-,N/A,,Overcast,0,2011-11-14 15:53:00
11:53 AM,66.0,48.9,54,30.12,10.0,Variable,5.8,-,N/A,,Overcast,0,2011-11-14 16:53:00
12:53 PM,68.0,48.9,50,30.09,10.0,Calm,Calm,-,N/A,,Overcast,0,2011-11-14 17:53:00
1:53 PM,70.0,52.0,53,30.05,10.0,SSW,9.2,-,N/A,,Overcast,200,2011-11-14 18:53:00
2:53 PM,71.1,54.0,55,30.03,10.0,South,9.2,-,N/A,,Overcast,180,2011-11-14 19:53:00
3:53 PM,72.0,54.0,53,30.01,10.0,South,4.6,-,N/A,,Mostly Cloudy,180,2011-11-14 20:53:00
4:53 PM,71.1,55.0,57,30.01,10.0,SE,4.6,-,N/A,,Partly Cloudy,130,2011-11-14 21:53:00
5:53 PM,70.0,55.0,59,30.01,10.0,Calm,Calm,-,N/A,,Overcast,0,2011-11-14 22:53:00
6:53 PM,69.1,55.0,61,30.05,10.0,SSW,4.6,-,0.00,,Overcast,200,2011-11-14 23:53:00
8:53 PM,64.9,59.0,81,30.06,10.0,Calm,Calm,-,N/A,,Overcast,0,2011-11-15 01:53:00
9:53 PM,64.0,59.0,84,30.05,10.0,Calm,Calm,-,N/A,,Overcast,0,2011-11-15 02:53:00
10:53 PM,63.0,59.0,87,30.03,10.0,Calm,Calm,-,N/A,,Overcast,0,2011-11-15 03:53:00
11:53 PM,62.1,59.0,90,30.03,10.0,Calm,Calm,-,N/A,,Overcast,0,2011-11-15 04:53:00